Location: �perlecques
(50.8057°N, 2.1521°E)
Time: 20:59:14
(UTC+00:00)

Tiros 1 - Pass Details

Date: 12 August 2021
Orbit: 630 x 663 km, 48.4° (Epoch: 28 September)

Event Time Altitude Azimuth Distance (km) Brightness Sun altitude
Rises 14:16:59 0° 231° (SW) 2,987 11.3 44.2°
Reaches altitude 10° 14:19:26 10° 224° (SW) 2,077 10.8 43.9°
Maximum altitude 14:23:53 39° 156° (SSE) 996 8.7 43.4°
Drops below altitude 10° 14:28:20 10° 88° (E) 2,078 9.5 42.8°
Sets 14:30:48 0° 81° (E) 2,988 10.2 42.5°
